Location: Allie Creek
(37.5926°N, 89.8526°W)
Time: 11:37:07
(UTC+00:00)

Cosmos 1833 - Pass Details

Date: 26 September 2023
Orbit: 833 x 865 km, 70.9° (Epoch: 28 November)

Event Time Altitude Azimuth Distance (km) Brightness Sun altitude
Exits shadow 09:56:10 46° 212° (SSW) 1,123 4.5 -23.1°
Maximum altitude 09:57:57 80° 292° (WNW) 855 4.0 -22.8°
Drops below altitude 10° 10:03:35 10° 20° (NNE) 2,454 7.1 -21.7°
Sets 10:06:02 0° 22° (NNE) 3,389 7.9 -21.3°
